Doha, Qatar

2:21 PM +03 on September 21, 2017 (GMT +0300)
Doha International

Weather History for OTBD - May, 2013

Change the Weather History Date:

Monday, May 27, 2013

  Actual Average Record
Temperature  
Mean Temperature 90 °F -  
Max Temperature 101 °F 106 °F 111 °F (1997)
Min Temperature 80 °F 82 °F 55 °F (1999)
Cooling Degree Days 26    
Growing Degree Days 40 (Base 50)    
Moisture  
Dew Point 64 °F    
Average Humidity 44    
Maximum Humidity 84    
Minimum Humidity 12    
Precipitation  
Precipitation 0.00 in 0.00 in - ()
Sea Level Pressure  
Sea Level Pressure 29.66 in    
Wind  
Wind Speed 5 mph ()    
Max Wind Speed 12 mph    
Max Gust Speed -    
Visibility 6.0 miles    
Events      
Averages and records for this station are not official NWS values.
T = Trace of Precipitation, MM = Missing Value Source: Averaged Metar Reports

Daily Weather History Graph

Daily Weather History Graph

Search for Another Location

Airport or City:

Trip Planner

Search our weather history database for the weather conditions in past years. The results will help you decide how hot, cold, wet, or windy it might be!

Date:

Astronomy

May. 27, 2013 Rise Set
Actual Time 4:44 AM +03 6:17 PM +03
Civil Twilight 4:19 AM +03 6:42 PM +03
Nautical Twilight 3:48 AM +03 7:13 PM +03
Astronomical Twilight 3:17 AM +03 7:44 PM +03
Moon 8:42 PM +03 (5/27) 6:51 AM +03 (5/27)
Length of Visible Light 14h 23m
Length of Day
13h 33m
Waning Gibbous, 93% of the Moon is Illuminated
May 27
Waning Gibbous
May 31
Last Quarter
Jun 8
New
Jun 16
First Quarter
Jun 23
Full

Hourly Weather History & Observations

Time (+03) Temp. Heat Index Dew Point Humidity Pressure Visibility Wind Dir Wind Speed Gust Speed Precip Events Conditions
12:00 AM 82.4 °F 89.5 °F 75.2 °F 79% 29.65 in - North 4.6 mph - N/A   Clear
2:00 AM 82.4 °F 89.5 °F 75.2 °F 79% 29.62 in - North 4.6 mph - N/A   Clear
2:30 AM 82.4 °F 89.5 °F 75.2 °F 79% 29.62 in - North 5.8 mph - N/A   Clear
3:00 AM 83 °F - 74 °F 69% 29.63 in 6 mi North 4.6 mph - -  
3:00 AM 82.4 °F 89.5 °F 75.2 °F 79% 29.62 in - North 4.6 mph - N/A   Clear
3:30 AM 82.4 °F 89.5 °F 75.2 °F 79% 29.62 in - North 4.6 mph - N/A   Clear
4:00 AM 82.4 °F 89.5 °F 75.2 °F 79% 29.62 in 5.6 mi North 3.5 mph - N/A   Unknown
4:30 AM 80.6 °F 86.2 °F 75.2 °F 84% 29.65 in 5.0 mi North 3.5 mph - N/A   Unknown
5:00 AM 80.6 °F 86.2 °F 75.2 °F 84% 29.65 in 4.3 mi Variable 1.2 mph - N/A   Unknown
5:30 AM 82.4 °F 89.5 °F 75.2 °F 79% 29.65 in 4.3 mi Variable 2.3 mph - N/A   Unknown
6:00 AM 84.2 °F 92.3 °F 75.2 °F 74% 29.65 in 5.0 mi Calm Calm - N/A   Unknown
6:30 AM 84.2 °F 92.3 °F 75.2 °F 74% 29.68 in 5.6 mi Variable 1.2 mph - N/A   Unknown
7:00 AM 86.0 °F 93.4 °F 73.4 °F 66% 29.68 in - Variable 2.3 mph - N/A   Clear
7:30 AM 89.6 °F 96.2 °F 71.6 °F 55% 29.68 in - Variable 2.3 mph - N/A   Clear
8:00 AM 93.2 °F 93.3 °F 60.8 °F 34% 29.68 in - NE 3.5 mph - N/A   Clear
8:30 AM 95.0 °F 93.7 °F 57.2 °F 28% 29.68 in - NE 4.6 mph - N/A   Clear
9:00 AM 98 °F - 51 °F 12% 29.71 in 9 mi NE 5.8 mph - -  
9:00 AM 96.8 °F - 51.8 °F 22% 29.71 in - NE 5.8 mph - N/A   Clear
9:30 AM 87.8 °F - 50.0 °F 27% 29.71 in - NE 6.9 mph - N/A   Clear
10:00 AM 96.8 °F 96.2 °F 59.0 °F 28% 29.71 in - NNE 6.9 mph - N/A   Clear
10:30 AM 98.6 °F - 51.8 °F 21% 29.71 in - ENE 5.8 mph - N/A   Clear
11:00 AM 98.6 °F 97.2 °F 55.4 °F 24% 29.71 in - ENE 6.9 mph - N/A   Clear
11:30 AM 100.4 °F - 51.8 °F 20% 29.71 in - ENE 6.9 mph - N/A   Clear
12:00 PM 100.4 °F - 50.0 °F 18% 29.71 in - East 10.4 mph - N/A   Clear
12:30 PM 98.6 °F 96.4 °F 53.6 °F 22% 29.68 in - East 9.2 mph - N/A   Clear
1:00 PM 98.6 °F 97.2 °F 55.4 °F 24% 29.68 in - East 10.4 mph - N/A   Clear
1:30 PM 98.6 °F 97.6 °F 57.2 °F 25% 29.68 in - East 10.4 mph - N/A   Clear
2:00 PM 98.6 °F 97.2 °F 55.4 °F 24% 29.65 in - East 10.4 mph - N/A   Clear
2:30 PM 96.8 °F 96.2 °F 59.0 °F 28% 29.65 in - East 11.5 mph - N/A   Clear
3:00 PM 98 °F - 56 °F 16% 29.66 in 9 mi East 9.2 mph - -  
3:00 PM 98.6 °F 97.2 °F 55.4 °F 24% 29.65 in - East 9.2 mph - N/A   Clear
3:30 PM 98.6 °F 96.4 °F 53.6 °F 22% 29.65 in - East 9.2 mph - N/A   Clear
4:00 PM 96.8 °F 95.8 °F 57.2 °F 27% 29.65 in - East 8.1 mph - N/A   Clear
4:30 PM 98.6 °F 96.4 °F 53.6 °F 22% 29.62 in - East 6.9 mph - N/A   Clear
5:00 PM 96.8 °F 95.1 °F 55.4 °F 25% 29.65 in - East 5.8 mph - N/A   Clear
5:30 PM 96.8 °F 95.8 °F 57.2 °F 27% 29.65 in - NE 3.5 mph - N/A   Clear
6:00 PM 95.0 °F 96.0 °F 62.6 °F 34% 29.65 in - ENE 4.6 mph - N/A   Clear
6:30 PM 93.2 °F 94.9 °F 64.4 °F 38% 29.65 in - ENE 4.6 mph - N/A   Clear
7:00 PM 91.4 °F 95.4 °F 68.0 °F 46% 29.65 in - ENE 4.6 mph - N/A   Clear
7:30 PM 91.4 °F 94.0 °F 66.2 °F 43% 29.65 in - Variable 2.3 mph - N/A   Clear
8:00 PM 91.4 °F 95.4 °F 68.0 °F 46% 29.65 in - Variable 2.3 mph - N/A   Clear
8:30 PM 89.6 °F 94.7 °F 69.8 °F 52% 29.68 in - Variable 1.2 mph - N/A   Clear
9:00 PM 90 °F - 64 °F 32% 29.69 in 6 mi 2.3 mph - -  
9:00 PM 89.6 °F 91.1 °F 64.4 °F 43% 29.68 in - Variable 2.3 mph - N/A   Clear
10:00 PM 89.6 °F 94.7 °F 69.8 °F 52% 29.68 in - Variable 2.3 mph - N/A   Clear
11:00 PM 87.8 °F 93.8 °F 71.6 °F 58% 29.65 in - Variable 2.3 mph - N/A   Clear
11:30 PM 87.8 °F 91.4 °F 68.0 °F 52% 29.65 in - North 4.6 mph - N/A   Clear